DC3YC-13 Weather Reports


time (UTC)temp
F
wind
direction
speed
knots
gust
knots
rain 1hr
in
rain 24hr
in
rain mn
in
humidity
%
barometer
mb
20260506080633 59 355 3.5 0.0 0.00 0.17 0.00 92 1005.1
20260506072633 55 355 3.5 0.0 0.00 0.17 0.00 98 1005.1
20260506071633 55 350 1.7 0.0 0.00 0.17 0.00 99 1005.1
20260506070633 54 350 5.2 0.0 0.00 0.17 0.00 100 1005.1
20260506061633 52 345 3.5 0.0 0.00 0.17 0.00 100 1005.1
20260506060633 52 345 0.9 0.0 0.00 0.17 0.00 100 1005.1
20260506050633 48 315 0.0 0.0 0.00 0.17 0.00 100 1005.1
20260506044633 48 315 0.0 0.0 0.00 0.17 0.00 100 1005.1
20260506043633 48 315 0.0 0.0 0.00 0.17 0.00 100 1005.1
20260506042633 48 320 0.0 0.0 0.00 0.17 0.00 100 1005.1
20260506041633 46 320 0.0 0.0 0.00 0.17 0.00 100 1005.1
20260506040633 46 320 0.0 0.0 0.00 0.17 0.00 100 1005.1
20260506035633 46 320 0.0 0.0 0.00 0.00 0.00 100 1005.1
20260506034633 46 320 0.0 0.0 0.00 0.00 0.00 100 1005.1
20260506033633 46 320 0.0 0.0 0.00 0.00 0.00 100 1005.1
20260506032633 48 325 0.0 0.0 0.00 0.00 0.00 100 1005.1
20260506031633 48 325 0.0 0.0 0.00 0.00 0.00 100 1005.1
20260506030633 48 320 0.0 0.0 0.00 0.00 0.00 100 1005.1
20260506025633 48 320 0.0 0.0 0.00 0.00 0.00 100 1005.1
20260506024633 48 325 0.0 0.0 0.00 0.00 0.00 100 1005.1
20260506023633 48 325 0.0 0.0 0.00 0.00 0.00 100 1005.1
20260506022633 48 330 0.0 0.0 0.00 0.00 0.00 100 1006.1
20260506021633 48 330 0.0 0.0 0.00 0.00 0.00 100 1005.1
20260506020633 48 330 0.0 0.0 0.00 0.00 0.00 100 1005.1
20260506015633 50 330 0.0 0.0 0.00 0.00 0.00 100 1004.9
20260506014633 48 330 0.0 0.0 0.00 0.00 0.00 100 1004.9
20260506013633 48 330 0.0 0.0 0.00 0.00 0.00 100 1004.9
20260506012633 50 330 0.0 0.0 0.00 0.00 0.00 100 1004.9
20260506011633 50 330 0.0 0.0 0.00 0.00 0.00 100 1004.9
20260506010633 50 330 0.0 0.0 0.00 0.00 0.00 100 1004.9
20260506005633 50 330 0.0 0.0 0.00 0.00 0.00 100 1006.0
20260506004633 50 330 0.0 0.0 0.00 0.00 0.00 100 1004.9
20260506003633 50 330 0.0 0.0 0.00 0.00 0.00 100 1004.9
20260506002633 50 330 0.0 0.0 0.00 0.00 0.00 100 1004.9
20260506001633 50 330 0.0 0.0 0.00 0.00 0.00 100 1006.0
20260506000633 52 330 0.0 0.0 0.00 0.00 0.00 100 1006.0
20260505235633 52 330 0.0 0.0 0.00 0.00 0.00 100 1006.0
20260505234633 52 330 0.0 0.0 0.00 0.00 0.00 100 1006.0
20260505233633 52 330 0.0 0.0 0.00 0.00 0.00 100 1006.0
20260505232633 52 330 0.0 0.0 0.00 0.00 0.00 100 1006.0
20260505231633 52 330 0.0 0.0 0.00 0.00 0.00 100 1006.0
20260505230633 52 330 0.0 0.0 0.00 0.00 0.00 100 1006.0
20260505225633 52 330 0.0 0.0 0.00 0.00 0.00 100 1006.0
20260505224633 52 330 0.0 0.0 0.00 0.00 0.00 100 1006.0
20260505223633 52 330 0.9 0.0 0.00 0.00 0.00 100 1006.0
20260505222633 52 330 0.0 0.0 0.01 0.00 0.00 100 1006.0
20260505221633 52 330 0.9 0.0 0.01 0.00 0.00 100 1006.0
20260505220633 52 330 0.0 0.0 0.01 0.00 0.00 100 1006.0
20260505215633 52 335 2.6 0.0 0.01 0.00 0.17 100 1006.0
20260505214633 52 335 0.0 0.0 0.01 0.00 0.17 100 1006.0
20260505213633 52 335 0.0 0.0 0.01 0.00 0.17 100 1006.0
20260505212633 52 335 0.0 0.0 0.00 0.00 0.17 100 1006.0
20260505211633 52 335 0.0 0.0 0.00 0.00 0.16 100 1006.0
20260505210633 50 340 0.0 0.0 0.00 0.00 0.16 100 1006.0
20260505205633 52 340 0.0 0.0 0.00 0.00 0.16 100 1006.0
20260505204633 52 340 0.0 0.0 0.00 0.00 0.16 100 1006.0
20260505203633 52 340 0.0 0.0 0.00 0.00 0.16 100 1006.0
20260505202633 52 340 0.0 0.0 0.00 0.00 0.16 100 1006.0
20260505201633 52 340 0.0 0.0 0.00 0.00 0.16 100 1006.0
20260505200633 52 340 0.0 0.0 0.00 0.00 0.16 100 1004.9
20260505195633 52 335 0.0 0.0 0.00 0.00 0.16 100 1004.9
20260505194633 52 335 0.0 0.0 0.00 0.00 0.16 100 1004.9
20260505193633 54 335 0.0 0.0 0.00 0.00 0.16 100 1006.0
20260505192633 54 335 0.0 0.0 0.00 0.00 0.16 100 1006.0
20260505191633 54 335 0.0 0.0 0.00 0.00 0.16 100 1006.0
20260505190633 54 335 0.0 0.0 0.00 0.00 0.16 100 1004.9
20260505185633 54 335 0.0 0.0 0.00 0.00 0.16 100 1004.9
20260505184633 55 340 0.0 0.0 0.00 0.00 0.16 99 1004.9
20260505183633 55 335 0.0 0.0 0.00 0.00 0.16 99 1004.9
20260505182633 55 335 0.0 0.0 0.00 0.00 0.16 99 1004.9
20260505181633 55 340 0.0 0.0 0.00 0.00 0.16 99 1004.9
20260505180633 55 340 0.0 0.0 0.00 0.00 0.16 99 1004.9
20260505175633 55 340 0.0 0.0 0.00 0.00 0.16 99 1004.8
20260505174633 55 340 0.0 0.0 0.00 0.00 0.16 99 1004.8
20260505173633 55 340 2.6 0.0 0.00 0.00 0.16 99 1004.8
20260505172633 57 340 1.7 0.0 0.07 0.00 0.16 99 1004.8
20260505171633 57 335 0.0 0.0 0.07 0.00 0.16 99 1004.8
20260505170633 57 335 4.3 0.0 0.07 0.00 0.16 99 1004.8
20260505165633 57 335 0.9 0.0 0.07 0.00 0.16 99 1003.8
20260505164633 57 340 1.7 0.0 0.07 0.00 0.16 99 1004.8
20260505163633 57 340 3.5 0.0 0.07 0.00 0.16 99 1004.8
20260505162633 57 340 0.9 0.0 0.09 0.00 0.16 99 1004.8
20260505161633 57 340 2.6 0.0 0.09 0.00 0.14 98 1004.8
20260505160633 57 340 5.2 0.0 0.09 0.00 0.13 98 1004.8
20260505152633 59 350 9.6 0.0 0.00 0.00 0.07 94 1004.8
20260505151633 61 355 9.6 0.0 0.00 0.00 0.06 88 1004.8
20260505150633 68 355 3.5 0.0 0.00 0.00 0.00 64 1003.8
20260505140633 73 355 1.7 0.0 0.00 0.00 0.00 43 1002.7
20260505124633 79 355 7.0 0.0 0.00 0.00 0.00 37 1003.8
20260505123633 79 355 5.2 0.0 0.00 0.00 0.00 39 1003.8
20260505122633 77 355 0.0 0.0 0.00 0.00 0.00 40 1003.8
20260505121633 75 355 1.7 0.0 0.00 0.00 0.00 40 1003.8
20260505120633 77 355 4.3 0.0 0.00 0.00 0.00 39 1003.8
20260505115633 79 355 6.1 0.0 0.00 0.00 0.00 37 1003.8
20260505114633 79 355 7.8 0.0 0.00 0.00 0.00 37 1003.8
20260505113633 81 350 3.5 0.0 0.00 0.00 0.00 36 1004.8
20260505112633 79 350 1.7 0.0 0.00 0.00 0.00 38 1004.8
20260505111633 79 355 0.9 0.0 0.00 0.00 0.00 36 1004.8
20260505110633 79 355 7.0 0.0 0.00 0.00 0.00 37 1004.9
20260505101633 79 355 5.2 0.0 0.00 0.00 0.00 43 1004.9
20260505100633 77 350 6.1 0.0 0.00 0.00 0.00 46 1004.9
20260505095633 75 355 5.2 0.0 0.00 0.00 0.00 43 1004.9
20260505094633 73 355 6.1 0.0 0.00 0.00 0.00 48 1004.9
20260505093633 75 355 3.5 0.0 0.00 0.00 0.00 47 1004.9
20260505092633 75 355 7.0 0.0 0.00 0.00 0.00 47 1006.0
20260505091633 75 355 5.2 0.0 0.00 0.00 0.00 45 1006.0
20260505090633 75 350 4.3 0.0 0.00 0.00 0.00 50 1006.0
20260505085633 73 355 0.9 0.0 0.00 0.00 0.00 51 1006.0
20260505084633 73 355 5.2 0.0 0.00 0.00 0.00 54 1006.0
20260505083633 72 355 3.5 0.0 0.00 0.00 0.00 57 1006.0
20260505082633 70 355 4.3 0.0 0.00 0.00 0.00 59 1006.0
20260505081633 70 355 4.3 0.0 0.00 0.00 0.00 60 1006.0